CAPE
0 0 0 0 0 0 0 0 0 0 0 0 0 0 0 0 0 0 0 0 0 0 0 0 0 0 0 366 562 584 444 495 620 423 219 145 33 129 141 41 46 26 0 0
0 0 0 0 0 0 0 0 0 0 0 0 0 0 0 0 0 0 0 0 0 0 0 0 0 0 0 228 381 546 417 336 475 475 251 154 51 18 0 0 0 0 0 0
0 0 0 0 0 0 0 0 0 0 0 0 0 0 0 0 0 0 0 0 0 0 0 0 0 0 0 178 396 496 392 413 349 422 186 47 0 0 0 0 0 3 0 0
0 0 0 0 0 0 0 0 0 0 0 0 0 0 0 0 0 0 0 0 0 0 0 0 0 0 0 36 368 479 424 433 342 271 129 79 50 8 0 0 0 0 0 0
0 0 0 0 0 0 0 0 0 0 0 0 0 0 0 0 0 0 0 2 0 0 0 0 0 0 0 40 261 541 402 447 379 181 134 214 35 26 4 0 0 0 0 0
0 0 0 0 0 0 0 0 0 0 0 0 0 0 0 0 0 3 33 19 10 0 0 0 0 0 0 0 448 510 485 342 447 328 138 191 187 20 6 0 0 2 0 0
0 0 0 0 0 0 0 0 0 0 0 0 0 0 0 3 22 29 55 2 5 1 0 0 0 0 0 0 160 575 545 458 287 501 446 244 335 230 21 13 8 31 17 1
0 0 0 0 0 0 0 0 0 0 0 0 0 0 0 0 0 0 0 0 0 0 0 0 0 0 0 0 0 735 584 565 533 428 565 682 439 387 429 183 170 106 85 65
0 0 0 0 0 0 0 0 3 1 0 0 0 0 0 0 0 0 0 0 0 0 0 0 0 0 0 0 0 635 776 663 633 695 703 677 901 789 585 658 525 551 365 188
0 0 0 0 0 0 0 0 0 0 0 0 0 0 0 0 0 0 0 0 0 0 0 0 0 0 0 0 0 0 475 1450 1066 777 901 982 772 1044 995 806 807 736 765 676
1 0 0 0 0 0 0 0 0 0 0 0 0 0 0 1 0 0 0 0 0 0 0 0 0 0 0 0 0 0 0 0 382 1485 1380 1376 1191 1109 1202 1188 1011 919 891 925
1 1 0 0 0 0 0 0 1 0 0 0 0 0 3 0 0 0 0 0 0 0 0 0 0 0 0 0 0 0 0 0 0 0 917 1659 1707 1490 1312 1252 1232 1180 1084 1159
0 0 0 0 0 0 0 0 3 1 0 0 0 0 0 0 0 0 0 0 1 1 0 0 0 0 0 0 0 0 0 0 0 0 34 920 1829 1803 1494 1236 1282 1291 1307 1258
1 0 0 0 0 0 1 2 4 0 0 0 0 0 0 0 0 0 0 0 1 0 0 0 0 0 0 0 0 0 0 0 0 0 0 20 473 1379 1581 1305 1211 1164 1040 1005
0 0 0 0 0 0 1 4 1 0 1 0 0 0 0 1 0 0 0 0 0 0 0 0 0 0 1 1 0 0 0 0 0 0 0 0 3 66 928 1544 1389 918 669 646
0 0 1 0 0 0 0 2 1 1 2 2 2 0 1 1 3 1 2 0 4 0 0 0 0 0 0 1 1 0 0 0 0 0 0 0 0 0 162 653 763 610 436 443
0 0 0 0 0 0 0 0 0 2 2 2 0 1 0 0 0 1 0 6 7 2 7 1 2 0 0 0 0 1 0 0 0 0 0 0 0 4 76 571 522 364 248 275
0 0 0 0 0 0 0 0 0 1 0 0 0 1 1 1 2 2 1 4 6 8 3 9 6 2 1 0 1 0 0 0 0 0 0 0 0 0 194 441 491 330 265 318
0 9 1 0 0 0 0 2 0 2 1 0 1 0 2 2 2 0 0 7 8 10 5 5 3 2 2 3 0 0 0 0 0 0 0 0 0 74 371 375 353 345 295 259
0 0 1 0 0 0 0 0 0 1 0 0 2 1 2 0 1 0 3 2 3 3 4 3 3 4 2 1 1 2 0 0 0 0 0 0 0 109 595 267 272 412 277 230
1 0 0 0 0 0 0 0 0 0 0 0 2 0 2 1 2 3 6 8 3 4 4 5 3 2 1 1 2 3 2 0 0 0 0 1 16 71 231 537 177 429 347 207
0 0 0 0 0 0 0 0 0 0 0 1 2 1 2 2 1 2 1 9 3 4 3 3 3 2 2 2 3 2 0 1 1 3 52 236 311 288 395 479 596 481 368 202
0 0 0 0 0 0 0 0 0 0 1 2 1 1 1 1 2 0 0 5 3 5 4 3 2 2 2 2 3 3 2 1 40 137 358 358 139 156 386 498 391 284 140 22
0 0 0 0 0 0 0 1 0 0 1 0 1 1 0 2 1 0 2 3 6 5 4 3 1 2 3 3 4 2 2 3 1 43 90 80 56 6 0 1 1 1 1 3
0 0 0 0 0 0 0 0 0 0 0 0 1 1 1 0 0 0 1 2 4 4 4 3 2 2 3 2 4 3 1 2 2 1 1 1 0 0 0 0 1 3 1 2
0 0 0 0 0 0 0 0 0 0 0 0 0 0 0 0 0 0 0 0 4 4 4 3 1 1 2 2 3 3 2 2 2 2 2 3 4 2 2 0 0 0 0 0
CIN
0 0 0 0 0 0 0 0 0 0 0 0 0 0 0 0 0 0 0 0 0 0 0 0 0 0 0 -140 -249 -291 -306 -318 -293 -382 -473 -510 -638 -584 -604 -661 -637 -690 0 0
0 0 0 0 0 0 0 0 0 0 0 0 0 0 0 0 0 0 0 0 0 0 0 0 0 0 0 -134 -198 -277 -310 -359 -338 -335 -456 -533 -592 -586 0 0 0 -98 0 0
0 0 0 0 0 0 0 0 0 0 0 0 0 0 0 0 0 0 0 0 0 0 0 0 0 0 0 -158 -181 -239 -301 -351 -365 -366 -444 -542 0 0 0 0 0 -326 0 0
0 0 0 0 0 0 0 0 0 0 0 0 0 0 0 0 0 0 0 0 0 0 0 0 0 0 0 -213 -171 -209 -278 -321 -356 -360 -464 -471 -416 -462 0 0 0 0 0 0
0 0 0 0 0 0 0 0 0 0 0 0 0 0 0 0 0 0 0 -50 -10 0 0 0 0 0 0 -141 -208 -229 -293 -303 -314 -372 -400 -424 -416 -431 -327 0 0 0 0 -44
0 0 0 0 0 0 0 0 0 0 0 0 0 0 0 0 0 -13 -56 -91 -148 -10 0 0 0 0 0 0 -168 -196 -241 -288 -283 -324 -382 -365 -365 -420 -178 0 0 -374 0 0
0 0 0 0 0 0 0 0 0 0 0 0 0 0 0 0 -18 -41 -51 -88 -228 -297 0 0 0 0 0 0 -168 -163 -207 -224 -292 -273 -295 -345 -305 -317 -374 -279 -255 -430 -444 -310
0 0 0 0 0 0 0 0 0 0 0 0 0 0 0 0 0 0 0 0 0 0 0 0 0 0 0 0 0 -119 -158 -177 -224 -245 -259 -261 -280 -291 -256 -295 -328 -383 -362 -407
0 0 0 0 0 0 0 0 0 -2 0 0 0 0 0 0 0 0 0 0 0 0 0 0 0 0 0 0 0 -159 -111 -137 -172 -197 -220 -244 -204 -243 -228 -186 -192 -229 -280 -321
0 -1 0 0 0 0 0 0 0 0 0 0 0 0 0 0 0 0 0 0 0 0 0 0 0 0 0 0 0 0 -130 -86 -159 -161 -152 -182 -224 -199 -174 -167 -146 -143 -172 -175
-5 0 0 0 0 0 0 -1 0 0 0 0 0 0 0 0 0 0 0 0 0 0 0 0 0 0 0 0 0 0 0 0 -229 -62 -130 -149 -169 -182 -157 -138 -142 -160 -150 -123
-17 -8 0 0 0 0 0 0 -3 -3 0 -1 0 0 -1 0 0 0 0 0 0 0 0 0 0 0 0 0 0 0 0 0 0 -23 -129 -65 -97 -127 -142 -126 -132 -137 -113 -92
0 -1 0 0 0 0 0 0 -1 0 0 0 0 0 0 0 0 0 0 0 0 0 0 0 0 0 0 0 0 0 0 0 0 0 -373 -120 -42 -54 -76 -89 -95 -108 -99 -88
-10 0 0 0 0 0 0 -1 -2 0 0 0 0 0 0 0 0 0 0 0 -1 0 0 0 0 0 0 0 0 0 0 0 0 0 0 -287 -178 -61 -49 -62 -83 -101 -90 -78
0 0 0 0 0 -1 -6 0 -5 0 0 0 0 0 0 0 0 0 0 0 0 -1 0 0 0 0 0 0 0 0 0 0 0 0 0 0 -80 -247 -100 -44 -56 -60 -62 -61
0 0 -2 -6 0 0 0 0 0 0 0 0 0 0 0 0 0 0 0 0 0 0 0 0 0 0 0 0 0 0 0 0 0 0 0 0 0 0 -165 -99 -90 -108 -128 -133
0 0 -7 0 0 0 -1 0 0 0 0 0 0 0 0 0 0 0 -1 0 0 0 0 0 0 0 0 0 0 0 0 0 0 0 0 0 0 -71 -172 -119 -153 -189 -200 -188
0 0 -1 0 0 0 0 0 0 0 -1 0 0 0 0 0 0 0 -4 0 0 0 -1 0 0 0 -2 -1 -2 0 0 0 0 0 0 0 0 0 -101 -110 -109 -206 -233 -189
0 -6 -4 0 0 0 0 0 0 0 0 -1 0 0 0 0 0 0 0 -1 0 0 -1 -1 0 0 -1 -1 0 0 0 0 0 0 0 0 0 -264 -128 -106 -130 -150 -195 -208
0 0 -4 0 0 0 0 0 0 0 0 0 0 -1 0 0 0 0 0 0 0 0 0 0 0 0 0 0 0 0 0 0 0 0 0 0 0 -311 -135 -146 -116 -120 -178 -208
-1 0 0 0 0 0 0 0 0 0 0 0 0 0 0 0 0 0 0 0 0 0 0 0 0 0 0 0 0 0 0 0 0 0 0 -84 -417 -294 -220 -137 -127 -137 -152 -183
0 0 0 0 0 0 0 0 0 0 0 0 0 0 0 0 0 0 0 0 0 0 0 0 0 0 0 0 0 0 0 0 0 -231 -238 -250 -213 -210 -173 -155 -100 -137 -113 -160
0 0 0 0 0 0 0 0 0 0 0 0 0 0 0 0 0 0 0 0 0 0 0 0 0 0 0 0 0 0 0 0 -290 -219 -145 -169 -300 -315 -221 -120 -108 -130 -152 -292
0 0 -1 0 0 0 0 0 0 0 0 0 0 0 0 0 0 0 0 0 0 0 0 0 0 0 0 0 0 0 0 0 0 -352 -321 -350 -386 -306 0 0 0 0 0 0
0 0 0 0 0 0 0 0 0 0 0 0 0 0 0 0 0 0 0 0 0 0 0 0 0 0 0 0 0 0 0 0 0 0 0 0 0 0 0 0 0 0 0 0
0 0 0 0 0 0 0 0 0 0 0 0 0 0 0 0 0 0 0 0 0 0 0 0 0 0 0 0 0 0 0 0 0 0 0 0 0 0 0 0 0 0 0 0
Wind_Speed
28 30 33 35 33 30 33 37 43 44 41 45 48 52 51 49 49 49 48 48 47 49 45 42 38 33 33 28 27 30 33 31 28 24 23 24 22 22 23 23 21 19 18 15
30 25 29 31 30 27 26 32 36 34 34 42 49 54 53 50 50 48 49 50 48 48 47 44 41 35 31 28 27 28 31 30 29 28 24 26 25 24 24 24 25 24 19 17
28 24 31 31 31 30 25 27 28 35 37 31 43 50 47 49 49 52 48 47 48 46 46 43 41 38 34 31 28 28 29 29 28 29 25 26 23 24 24 24 24 23 20 19
23 24 33 28 25 30 29 23 25 27 33 47 33 52 48 45 47 46 46 42 39 38 37 38 37 34 39 34 31 30 30 30 29 30 28 27 28 28 29 28 26 23 22 20
24 28 28 21 23 26 24 24 23 22 21 26 39 31 36 42 39 38 37 33 32 32 32 33 35 33 36 37 33 31 32 32 30 30 31 29 30 33 29 28 28 29 25 23
32 18 18 18 22 26 22 25 21 20 20 21 22 33 38 36 33 28 27 28 30 28 29 28 29 30 30 34 33 32 31 33 32 32 34 32 30 30 31 30 29 30 29 30
29 26 18 19 29 24 25 27 25 23 24 21 20 35 19 32 32 29 25 24 26 27 27 27 27 30 27 31 35 31 31 32 33 34 35 35 33 31 30 30 31 30 32 32
28 29 24 19 20 20 20 20 18 20 20 13 18 23 8 23 32 26 24 25 25 26 25 25 25 27 27 27 34 34 32 33 32 35 36 36 35 34 33 31 33 34 34 33
24 25 17 15 22 19 21 20 13 5 11 9 8 4 14 11 31 29 28 28 27 27 28 28 24 25 25 23 27 35 33 31 30 34 37 38 37 35 34 32 33 35 36 34
20 23 16 17 19 17 19 17 17 13 10 8 8 5 5 9 6 26 32 31 30 29 29 32 29 27 24 23 21 22 32 35 32 30 31 36 40 39 39 37 35 38 37 35
21 18 17 18 18 18 18 18 15 11 9 8 8 8 13 15 8 17 35 33 33 31 31 32 35 31 26 20 23 20 20 25 33 35 35 33 35 38 38 38 39 34 35 37
17 20 19 13 4 10 15 15 14 12 10 7 6 6 16 24 23 10 27 32 34 32 31 30 32 31 30 25 24 20 22 22 25 31 37 38 37 38 40 39 39 36 37 37
14 15 24 25 19 16 16 12 11 9 10 5 7 7 23 38 38 37 34 32 31 32 33 33 32 32 34 31 29 26 25 26 25 26 28 37 41 41 42 41 42 40 37 37
10 11 12 17 15 8 10 7 8 10 10 7 5 6 8 31 37 35 36 36 36 35 34 35 36 36 33 33 34 30 28 27 27 27 27 28 33 41 43 43 40 40 38 35
11 10 14 12 7 6 5 4 11 11 8 9 8 9 13 34 30 39 39 39 38 36 35 36 38 38 38 37 35 33 32 31 31 28 27 29 29 32 39 41 39 37 36 35
11 12 20 15 5 11 6 4 12 12 14 8 8 10 19 16 22 27 42 41 41 41 40 39 39 41 40 39 38 36 35 34 33 33 31 31 33 31 35 40 39 35 33 31
11 13 16 14 36 33 15 9 14 15 13 11 12 16 12 21 20 17 13 12 42 44 45 43 43 42 42 42 40 41 38 36 35 34 33 34 32 32 33 34 35 33 31 28
9 12 13 15 32 24 17 12 11 14 8 11 12 15 21 21 16 14 11 14 30 42 45 44 43 43 42 41 41 40 39 37 37 36 36 38 35 33 27 26 31 31 29 27
5 11 14 13 20 29 18 13 18 20 15 15 18 18 23 19 14 17 15 15 16 16 43 41 40 42 42 41 42 41 39 36 34 35 36 36 35 34 25 24 26 29 28 27
13 11 12 15 15 19 20 15 21 17 15 18 20 19 22 15 20 15 16 16 19 13 18 19 36 37 36 37 36 37 37 35 35 37 37 34 33 33 30 26 23 29 31 29
12 13 9 10 11 25 19 21 24 23 19 15 19 18 19 18 16 13 13 16 16 12 11 12 15 29 29 31 32 35 35 35 35 34 33 31 30 30 31 29 23 27 26 28
13 13 11 14 14 16 15 27 26 18 19 13 15 17 15 12 11 11 12 15 13 12 12 10 8 13 21 22 26 28 29 30 30 30 31 30 27 24 23 24 27 26 27 25
13 12 15 9 10 22 18 22 17 17 10 9 15 12 9 9 12 13 14 14 11 9 15 10 8 5 7 15 20 21 24 27 28 28 30 20 17 17 19 22 21 22 24 27
16 12 13 15 12 19 25 19 15 16 3 6 13 12 6 8 8 12 18 10 8 9 11 15 13 12 13 13 17 18 21 21 21 19 15 13 11 13 15 18 19 14 15 23
14 13 12 11 8 18 21 14 13 20 5 10 12 18 10 13 20 19 21 18 8 8 7 23 18 16 15 17 15 16 17 17 17 13 12 10 10 10 10 10 15 13 17 19
7 7 9 10 12 14 24 20 14 19 21 22 15 27 15 18 11 12 17 15 7 10 10 16 21 16 12 17 16 16 15 14 12 10 10 11 9 11 9 9 9 9 10 17
Wind_Direction
358 352 350 348 348 343 334 329 322 320 320 309 293 282 281 281 276 274 269 268 266 261 263 266 270 263 256 248 241 235 232 234 233 230 234 239 239 243 245 246 245 239 239 231
354 355 354 348 347 343 339 335 333 332 331 314 299 289 286 281 276 273 272 268 266 263 262 265 270 260 252 244 239 236 229 229 231 234 238 245 242 246 247 249 250 247 236 231
350 351 350 350 351 354 353 344 342 334 333 328 310 293 292 284 279 273 270 269 266 263 262 263 269 260 250 244 238 232 227 223 225 232 241 248 243 249 249 250 252 250 245 240
4 359 350 354 357 357 349 354 342 338 339 312 329 295 289 293 287 273 267 269 270 268 267 264 267 266 253 245 240 233 228 227 226 228 236 238 240 245 250 253 253 253 250 245
360 351 355 2 2 359 350 351 344 341 334 339 320 315 309 311 297 282 271 275 272 274 271 270 270 270 260 249 241 236 233 230 229 228 233 238 243 249 255 252 253 253 254 250
354 13 16 13 7 1 356 352 349 1 6 0 1 332 317 320 313 307 289 279 275 275 278 279 279 276 268 253 246 238 233 234 232 234 237 239 242 246 250 251 254 254 255 253
360 5 22 24 3 6 7 8 4 7 11 10 12 334 356 341 341 328 302 292 282 277 280 284 285 278 277 259 246 241 235 235 233 237 238 242 245 248 250 251 253 253 254 255
4 1 13 18 15 9 18 19 21 13 11 344 3 12 53 26 348 315 311 308 296 284 279 288 294 288 281 276 249 243 239 238 236 238 242 245 246 248 252 253 255 254 255 257
10 2 13 26 21 34 28 36 31 21 12 15 58 66 38 18 324 317 314 306 300 294 278 278 300 300 292 290 267 245 243 243 240 240 244 245 247 248 250 256 256 255 255 258
13 1 26 26 34 42 35 41 42 45 50 41 50 41 58 47 299 306 311 304 303 296 283 271 276 291 301 294 288 266 254 251 250 246 245 246 246 250 252 254 253 254 256 258
11 16 16 24 34 28 36 33 37 41 52 49 33 48 49 38 3 295 309 303 302 295 283 277 265 283 284 295 294 284 278 265 258 256 253 250 248 248 250 252 252 256 257 256
16 8 7 12 24 47 47 31 36 43 46 46 18 6 28 7 8 353 293 297 304 299 286 282 275 272 285 281 287 291 284 279 274 265 256 253 253 251 251 252 254 256 257 257
15 17 358 7 31 38 23 33 38 38 42 38 20 17 3 335 317 318 306 302 296 302 294 283 278 276 274 278 281 290 288 279 281 279 271 257 254 253 252 253 255 256 258 259
23 18 9 0 356 327 1 8 26 36 27 17 332 317 348 323 310 305 307 308 309 306 295 287 279 279 280 279 274 279 281 283 280 282 278 273 263 255 253 253 255 257 259 260
38 13 1 350 302 299 301 335 34 30 14 16 356 314 310 315 298 306 304 306 310 304 295 287 284 279 276 278 277 277 276 276 279 282 284 279 274 268 256 251 252 256 257 261
26 11 353 353 306 3 317 41 39 35 22 353 6 330 15 359 3 359 315 312 305 302 295 288 279 275 277 277 277 277 275 275 279 278 279 282 274 274 267 254 250 252 255 259
17 8 2 357 324 329 14 49 30 20 12 14 11 8 345 360 356 313 321 344 304 303 297 290 282 274 271 268 267 266 271 274 274 277 276 274 275 272 274 259 250 247 252 257
19 13 10 353 331 346 10 31 31 8 357 29 17 5 3 1 347 314 355 327 297 304 303 297 287 277 272 271 266 265 265 264 268 270 267 263 264 267 277 266 251 247 249 252
37 19 10 9 352 328 356 22 14 12 10 32 17 10 10 8 341 16 9 343 327 314 323 312 298 281 275 266 259 259 259 266 271 265 267 266 264 263 269 268 260 251 249 250
16 19 11 3 360 347 347 17 6 14 18 28 15 15 17 6 21 9 324 333 5 345 10 293 299 293 278 266 260 256 257 259 261 257 262 271 274 272 268 263 272 256 251 251
14 9 2 3 358 327 342 349 357 355 10 10 16 19 21 20 15 323 340 12 7 359 348 321 295 295 287 265 259 255 254 257 264 267 272 277 275 275 268 262 259 256 253 251
6 9 6 11 4 354 360 338 338 353 1 20 21 23 23 12 355 343 357 19 3 2 336 344 330 299 292 279 260 257 259 266 271 274 276 274 273 279 271 262 258 252 252 248
358 1 1 9 3 337 347 341 353 353 17 30 25 30 27 8 13 15 17 21 339 356 317 329 326 318 288 297 279 272 272 273 276 274 269 275 277 283 277 265 256 255 247 244
349 356 349 353 7 343 332 347 360 354 101 47 30 32 28 18 5 19 30 12 7 356 320 311 313 307 300 293 299 285 279 279 280 282 279 275 282 289 287 268 260 249 241 241
341 356 353 343 337 344 337 354 1 331 52 37 35 26 43 40 27 32 33 35 22 338 354 322 315 310 306 305 299 292 287 279 269 277 277 286 294 289 286 282 263 270 254 237
343 342 343 354 7 1 332 335 351 338 335 337 2 350 37 35 39 37 43 47 356 319 324 318 323 315 308 313 312 307 303 302 298 305 297 288 298 272 281 272 278 290 259 233